GFSFLT1_con_mlcape_273.txt.gz
CAPE
7 11 6 10 11 12 31 24 26 31 28 30 42 18 14 4 0 0 0 0 0 0 1 2 13 108 149 2 7 3 1 2 1
11 8 9 2 29 18 8 12 51 39 32 33 36 19 18 2 0 0 0 0 0 0 5 3 6 94 163 90 4 3 4 6 3
7 9 2 4 37 38 13 7 17 36 35 58 47 63 40 20 0 0 0 0 0 0 4 6 3 46 90 113 5 4 178 1 130
1 5 4 6 17 28 27 17 14 17 21 26 8 5 2 39 16 0 0 0 0 0 1 8 4 5 140 54 106 87 209 121 144
0 5 10 14 14 8 14 25 24 12 8 12 5 1 0 0 0 0 0 0 0 0 0 2 9 3 66 223 190 144 149 218 164
0 3 10 13 14 8 10 6 20 29 2 0 0 0 0 0 0 0 0 0 0 0 0 0 2 7 47 195 233 205 185 156 152
1 0 3 2 10 18 15 18 15 1 0 0 0 0 0 0 0 0 0 0 0 0 0 0 0 12 34 68 327 278 186 234 206
0 0 0 0 0 0 0 0 0 0 0 0 0 0 0 0 0 0 0 0 0 0 0 0 0 12 0 35 133 134 78 189 167
0 0 0 0 0 0 9 0 0 0 0 0 0 0 0 0 0 0 0 0 0 0 0 0 0 8 0 0 19 149 104 240 282
0 0 0 0 0 0 0 1 3 2 0 0 0 0 0 0 0 0 0 0 0 0 0 0 1 11 0 0 9 49 156 72 259
0 0 0 0 0 0 1 0 6 8 2 13 7 0 0 0 0 0 0 0 0 0 0 0 34 10 0 0 9 55 107 116 106
0 0 0 0 0 0 0 0 10 1 1 4 9 6 0 0 0 0 0 0 0 0 0 0 32 18 9 33 63 59 124 33 38
0 0 0 0 0 0 0 3 4 6 2 0 4 7 0 0 0 0 0 0 0 0 0 0 40 37 13 60 17 0 0 0 0
0 0 0 0 0 0 4 3 1 1 1 2 20 9 7 0 0 0 0 0 0 0 0 0 20 46 30 73 41 3 0 0 0
0 0 0 0 0 0 4 5 3 1 1 3 4 2 0 0 0 0 0 0 0 0 0 0 0 38 20 75 79 0 0 0 0
0 0 0 0 1 1 5 5 0 0 0 6 0 3 0 0 0 0 0 0 0 0 0 0 0 13 18 53 60 33 0 0 0
0 0 0 0 0 8 1 3 0 0 4 2 3 0 0 0 0 0 0 0 0 0 0 0 0 9 19 18 9 0 0 0 0
0 1 10 10 6 0 0 1 1 1 1 0 1 0 0 1 0 0 0 0 0 0 0 0 0 0 4 2 0 0 0 0 0
0 3 6 2 1 1 1 0 0 0 2 2 7 3 1 0 0 0 0 0 0 0 0 0 0 0 0 3 2 0 0 0 0
0 0 2 7 5 0 1 1 1 1 6 3 3 1 2 2 2 0 1 0 0 0 0 0 0 0 0 0 4 2 0 0 0

GFSFLT1_con_mlcape_276.txt.gz
CAPE
7 18 8 17 5 16 12 22 27 43 48 56 38 20 22 27 3 0 0 0 0 0 5 8 6 9 28 57 7 1 3 3 2
10 7 5 19 16 29 25 10 12 21 42 41 37 29 28 23 1 0 0 0 0 0 4 6 19 13 5 52 82 4 4 2 1
3 6 9 11 30 24 33 26 30 20 19 42 50 16 13 2 0 0 0 0 0 0 0 2 4 22 6 15 60 47 4 7 6
0 4 6 7 8 11 19 33 23 24 25 17 27 12 13 0 0 0 0 0 0 0 0 2 4 4 17 10 48 99 7 3 163
0 1 4 8 6 12 10 14 21 15 23 6 3 5 1 0 0 0 0 0 4 2 1 2 3 3 0 16 23 94 71 2 110
0 0 3 4 3 9 6 10 12 18 0 0 0 6 0 0 0 0 0 0 7 17 8 5 2 0 0 11 26 185 145 83 133
0 0 0 0 0 3 5 8 10 2 0 0 0 0 0 0 0 0 0 0 2 8 14 6 1 0 0 7 26 93 263 216 142
0 0 0 0 0 0 0 0 0 0 0 0 0 0 0 0 0 0 0 0 0 6 11 9 0 0 0 14 19 48 93 300 240
0 0 0 0 0 0 0 0 0 0 1 0 0 0 0 0 0 0 0 0 0 9 10 5 1 0 2 15 1 3 14 110 124
0 0 0 0 0 0 0 0 0 2 1 1 6 4 0 0 0 0 0 0 0 4 7 5 2 0 0 18 0 0 24 33 87
0 0 0 0 0 0 0 0 0 1 1 0 0 7 10 0 0 0 0 0 0 0 1 4 1 3 1 41 0 0 46 42 99
0 0 0 0 0 0 0 0 0 0 0 1 0 0 4 7 0 0 0 0 0 0 0 0 0 0 19 41 0 2 20 58 73
0 0 0 0 0 0 0 0 6 4 0 0 0 4 6 10 0 0 0 0 0 0 0 0 0 0 72 53 54 27 18 0 6
0 0 0 0 0 0 0 1 8 1 0 0 1 1 1 7 1 0 0 0 0 0 0 0 0 0 68 84 114 48 0 0 0
0 0 0 0 0 0 1 10 0 0 0 0 1 0 0 0 0 0 0 0 0 0 0 0 0 0 56 96 73 77 5 0 0
0 0 0 2 0 0 1 1 0 0 0 1 2 0 0 0 0 0 0 0 0 0 0 0 0 0 23 55 33 99 0 0 0
0 0 5 2 1 0 0 0 0 1 0 3 2 1 0 0 0 1 0 0 0 0 0 0 0 0 0 17 43 1 0 13 8
0 0 7 8 4 0 1 0 1 1 2 4 2 0 1 1 0 0 0 0 0 0 0 0 0 1 4 24 1 0 0 0 0
0 0 0 0 1 3 2 6 3 1 2 1 4 3 2 1 0 0 0 0 0 0 0 0 0 0 12 24 14 1 0 0 0
0 0 0 0 0 0 1 5 10 4 1 3 3 2 4 1 2 0 0 0 0 0 0 0 0 0 0 0 6 3 0 0 0

GFSFLT1_con_mlcape_279.txt.gz
CAPE
8 11 7 10 8 9 16 20 24 17 8 14 28 23 34 44 0 0 1 0 0 0 0 3 12 23 21 22 53 65 4 8 1
8 11 7 8 9 19 29 14 11 23 14 7 12 44 18 8 0 0 0 0 0 0 0 3 6 12 22 10 4 49 46 8 8
3 6 8 13 5 3 9 14 5 6 25 18 30 24 13 4 0 0 0 0 0 3 2 2 3 6 10 14 14 11 53 18 7
0 1 2 7 7 10 6 15 15 14 16 25 17 7 9 5 0 0 0 0 0 12 6 4 4 4 4 9 5 19 37 74 8
0 0 1 2 3 4 10 12 10 13 21 6 7 6 8 0 0 0 0 0 0 12 11 4 5 11 5 5 6 12 28 88 46
0 0 0 1 0 1 3 5 6 9 1 0 0 3 0 0 0 0 0 0 1 12 21 14 11 5 8 8 2 5 15 67 80
0 0 0 0 0 0 0 0 1 0 0 0 0 0 0 0 0 0 0 0 3 10 22 18 18 7 4 3 0 1 16 58 180
0 0 0 0 0 0 0 0 0 0 0 0 0 0 0 0 0 0 0 0 1 11 20 10 8 7 6 1 0 1 8 58 91
0 0 0 0 0 0 0 0 2 1 0 0 0 0 1 0 0 0 0 1 2 7 12 18 11 17 3 2 3 4 52 27 32
0 0 0 0 0 0 0 0 1 2 3 0 0 0 3 1 0 0 0 1 7 11 19 17 6 21 14 3 1 17 30 0 8
0 0 0 0 0 0 0 0 1 4 3 0 0 0 0 0 1 0 0 0 1 10 18 9 9 15 20 10 3 4 22 0 11
0 0 0 0 0 0 0 0 2 7 1 0 0 2 1 2 1 2 1 0 0 0 2 8 12 11 13 7 3 7 9 1 58
0 0 0 0 0 0 4 5 4 9 6 0 0 1 4 6 5 7 7 1 0 0 0 0 0 0 0 3 33 73 21 23 7
0 0 0 0 1 2 6 6 8 6 1 0 0 1 2 5 3 2 2 1 0 0 0 0 0 0 0 0 47 63 102 58 17
0 0 0 2 6 1 1 0 6 6 0 3 2 6 0 0 2 0 0 4 0 0 0 0 0 0 0 0 44 94 109 54 7
0 0 3 21 12 1 0 0 1 0 7 1 1 1 0 0 4 13 2 5 0 0 0 0 0 0 0 1 53 110 119 18 10
0 0 2 3 7 5 5 3 1 1 11 2 2 0 0 5 0 8 3 7 0 0 0 0 0 0 0 5 34 85 0 11 31
0 0 0 0 0 4 13 14 5 2 1 9 4 0 0 1 5 11 0 4 0 0 0 0 0 0 1 52 68 49 0 0 0
0 0 0 0 0 0 2 14 17 10 4 4 6 3 3 1 0 4 1 0 0 0 0 0 0 0 8 40 62 25 12 5 0
0 0 0 0 0 0 1 3 11 6 4 10 10 4 1 4 5 1 0 0 1 0 0 0 0 0 0 5 37 0 0 0 0

GFSFLT1_con_mlcape_285.txt.gz
CAPE
3 6 5 5 5 7 5 8 7 6 6 2 11 4 30 8 2 1 0 0 0 1 8 6 8 2 2 11 14 15 52 53 47
1 2 2 2 5 4 3 5 8 4 4 5 6 13 13 3 0 0 0 0 0 4 4 7 5 8 9 6 6 12 10 39 50
0 0 0 4 4 3 5 5 3 4 5 5 6 3 2 0 0 0 0 0 0 0 5 7 11 13 12 12 10 14 15 13 13
0 0 0 4 5 7 5 4 5 3 2 2 1 0 0 0 0 0 0 0 0 0 2 5 10 12 15 7 16 18 17 17 12
0 0 0 1 3 6 5 8 5 5 2 0 0 0 0 0 0 0 0 0 0 1 2 4 10 13 16 25 14 17 23 15 12
0 0 0 0 0 1 1 3 3 1 0 0 0 0 0 0 0 0 0 0 0 3 4 3 5 13 20 22 18 14 9 16 11
0 0 0 0 0 0 0 0 0 0 0 0 0 0 0 0 0 0 0 0 1 8 8 5 6 8 21 26 15 12 8 10 12
0 0 0 0 0 0 0 0 0 0 0 0 0 0 0 0 0 0 0 0 0 4 14 11 8 10 10 12 12 9 6 8 4
0 0 0 0 0 0 0 0 0 0 0 0 0 0 0 0 0 0 0 0 0 2 10 18 11 15 15 8 17 11 14 8 5
0 0 0 0 0 1 0 0 0 0 0 0 0 0 0 0 0 0 0 0 0 2 4 16 15 12 23 15 8 11 14 26 10
0 0 0 1 1 3 2 3 0 0 0 0 0 0 0 0 0 0 0 0 0 1 4 10 16 11 20 30 13 7 14 21 18
0 0 0 1 3 0 2 0 1 0 0 0 0 0 0 0 0 0 1 0 2 0 2 11 15 25 20 16 37 45 21 10 12
0 1 4 2 1 0 2 0 4 1 0 1 0 0 0 0 0 1 4 1 1 4 4 11 18 17 20 16 19 15 18 12 15
0 1 2 3 5 3 2 7 7 9 6 2 2 0 0 0 0 3 1 2 13 8 4 8 18 25 23 23 18 17 30 12 10
0 0 0 1 1 1 2 11 18 13 13 0 5 2 0 0 14 6 6 7 5 0 6 12 3 18 19 16 17 22 20 12 8
0 0 0 0 1 3 10 14 12 12 12 16 2 2 0 0 0 1 8 6 0 1 3 10 14 13 4 5 9 14 11 9 2
0 0 0 0 0 0 3 3 5 6 20 19 6 3 0 0 0 2 8 18 0 0 2 10 9 15 7 6 0 0 0 0 37
0 0 0 0 0 0 3 2 9 13 8 10 18 4 1 5 0 0 3 12 0 0 0 8 16 9 16 0 0 0 15 104 186
0 0 2 3 3 1 2 3 2 6 7 4 8 1 10 3 0 0 1 7 0 0 0 0 58 31 69 47 21 49 17 0 0
0 0 2 0 4 3 2 1 3 5 2 7 1 6 9 4 8 2 2 0 0 0 1 1 2 21 59 72 64 42 2 0 0

GFSFLT1_con_mlcape_288.txt.gz
CAPE
1 3 2 5 6 8 5 5 6 5 5 10 14 7 19 3 0 0 0 0 0 1 4 6 3 3 6 13 10 17 19 9 29
0 0 0 3 4 3 6 4 4 6 5 4 6 9 3 0 0 0 0 0 0 0 1 4 5 6 4 12 18 16 22 13 12
0 0 0 1 3 3 5 5 6 5 6 5 3 2 2 0 0 0 0 0 0 0 2 5 5 7 8 6 13 16 18 24 18
0 0 0 1 4 5 4 4 7 5 5 2 0 0 0 0 0 0 0 0 0 0 3 4 4 6 8 7 12 23 19 28 32
0 0 0 1 2 4 5 5 6 4 1 0 0 0 0 0 0 0 0 0 0 1 2 4 5 6 8 8 10 11 16 25 21
0 0 0 0 1 2 5 6 6 1 0 0 0 0 0 0 0 0 0 0 0 4 5 7 7 9 9 10 17 14 13 11 14
0 0 0 0 0 0 1 2 1 0 0 0 0 0 0 0 0 0 0 0 1 7 10 7 8 6 7 11 16 9 22 7 8
0 0 0 0 0 0 0 0 0 0 0 0 0 0 0 0 0 0 0 0 0 2 8 11 11 6 8 11 18 10 11 18 1
0 0 0 0 0 0 0 0 0 0 0 0 0 0 0 0 0 0 0 0 0 2 5 12 13 11 11 10 22 7 16 6 5
0 0 0 0 0 0 0 0 0 0 0 0 0 0 0 0 0 0 0 0 0 0 6 11 18 16 15 10 10 15 19 9 21
0 0 0 0 0 1 0 1 0 0 0 0 0 0 0 0 0 0 0 0 1 2 4 5 10 16 18 16 9 20 16 36 39
0 0 0 0 0 1 0 0 1 1 0 0 0 0 0 0 0 0 0 0 0 0 0 3 6 12 12 15 20 13 11 20 52
0 0 0 0 0 2 3 1 2 3 0 0 0 0 0 0 0 0 0 0 0 0 0 6 6 9 17 19 27 20 15 16 15
0 0 0 0 0 0 0 2 5 8 1 0 0 0 0 0 0 0 0 0 1 0 0 0 2 9 15 22 29 23 13 9 11
0 0 0 0 0 0 0 0 0 0 1 0 0 0 0 0 0 0 0 0 4 0 0 0 0 2 24 32 46 36 26 20 14
0 0 0 0 0 0 0 0 0 0 0 0 0 0 0 0 0 0 0 0 0 0 0 0 0 0 17 29 31 35 38 22 8
0 0 0 0 0 0 0 0 0 0 0 0 0 0 0 0 0 0 0 0 0 0 0 0 0 0 22 18 16 21 37 35 23
0 0 0 0 0 0 0 0 0 0 0 1 17 10 7 2 0 0 0 0 0 0 0 0 0 0 49 56 46 7 5 10 9
0 0 0 0 0 0 0 0 1 1 0 1 0 6 2 15 2 0 0 0 0 0 0 0 3 4 2 17 71 117 1 69 146
0 0 0 0 0 0 0 0 0 0 0 0 1 0 6 0 9 3 0 0 0 0 0 0 1 0 2 3 103 111 106 4 4